Location: Chimay
(50.0486°N, 4.3171°E)
Time: 08:25:18
(UTC+00:00)

Meteor 1-5 Rocket - Pass Details

Date: 08 August 2020
Orbit: 788 x 916 km, 81.2° (Epoch: 20 September)

Event Time Altitude Azimuth Distance (km) Brightness Sun altitude
Exits shadow 22:40:48 37° 205° (SSW) 1,396 4.9 -22.5°
Maximum altitude 22:43:19 75° 284° (WNW) 950 4.4 -22.6°
Drops below altitude 10° 22:49:18 10° 10° (N) 2,603 7.6 -22.9°
Sets 22:51:46 0° 12° (NNE) 3,537 8.5 -23.0°
